Back to catalog

STARLINK-35258

AliveCommunicationsVLEO
NORAD 65861·PAYLOAD·🇺🇸 United States

Launched Oct 3, 2025 from Vandenberg Space Force Base

Loading…

Next Passes (next 24 hours)

TLE

FreshSource: CelesTrak SupGP

Epoch: Sep 14, 2026, 15:01 UTC

1 65861C 25223H   26257.62618056  .00044841  00000+0  13249-2 0  2574
2 65861  53.1558 132.9141 0001350 103.3161 285.4434 15.34366017    17

Track STARLINK-35258 in real time with AllMySat

Download on the App Store